Вернуться в каталог

RAVEN

АктивенВоенныеSSO
NORAD 69016·PAYLOAD·🇺🇸 United States

Запущен May 3, 2026 с Vandenberg Space Force Base

Loading…

Ближайшие Пролёты (ближайшие 24 часа)

TLE

СвежийSource: Space-Track

Эпоха: Sep 14, 2026, 12:02 UTC

1 69016U 26100AN  26257.50188109  .00001944  00000-0  88818-4 0  9990
2 69016  97.3902 153.8519 0009634  95.6011 264.6324 15.21728772 20393

Отслеживайте RAVEN в реальном времени с AllMySat

Download on the App Store